Location: Unspecified
(0.0000°N, 0.0000°E)
Time: 12:11:26
(UTC+01:00)

ISS - All Passes

Search period start: 24 January 2017 00:00
Search period end: 03 February 2017 00:00
Orbit: 399 x 410 km, 51.6° (Epoch: 24 January)

Date Brightness Start Highest point End Pass type
(mag) Time Alt. Az. Time Alt. Az. Time Alt. Az.
24 Jan - 06:20:21 10° NNE 06:22:30 16° NE 06:24:39 10° E visible
24 Jan - 07:56:55 10° W 07:58:46 14° SW 08:00:38 10° SSW daylight
24 Jan - 17:55:42 10° SE 17:56:29 11° SE 17:57:15 10° ESE daylight
24 Jan - 19:30:06 10° WSW 19:32:46 23° NW 19:35:24 10° N visible
25 Jan - 07:03:34 10° NW 07:06:36 37° SW 07:09:39 10° SSE daylight
25 Jan - 18:37:20 10° SW 18:40:36 66° NW 18:43:50 10° NNE daylight
26 Jan - 06:11:12 10° NNW 06:14:25 68° NE 06:17:40 10° SE visible
26 Jan - 17:45:20 10° SSW 17:48:25 38° SE 17:51:30 10° NE daylight
27 Jan - 05:19:37 10° N 05:22:15 23° NE 05:24:53 10° ESE visible
27 Jan - 06:58:06 10° WSW 06:58:32 10° SW 06:58:57 10° SW daylight
27 Jan - 16:54:15 10° SSE 16:56:13 15° SE 16:58:09 10° E daylight
27 Jan - 18:30:20 10° W 18:32:29 16° NW 18:34:38 10° NNW daylight
28 Jan - 06:03:32 10° WNW 06:06:18 26° SW 06:09:05 10° S visible
28 Jan - 17:37:08 10° SW 17:40:17 43° NW 17:43:25 10° NNE daylight
29 Jan - 05:10:52 10° NW 05:14:05 79° WSW 05:17:20 10° SSE visible
29 Jan - 16:44:49 10° SSW 16:48:04 57° SE 16:51:17 10° NE daylight
30 Jan - 04:18:56 10° N 04:21:52 32° NE 04:24:49 10° ESE night (unlit)
30 Jan - 15:53:17 10° S 15:55:49 20° SE 15:58:20 10° ENE daylight
30 Jan - 17:30:48 10° WNW 17:32:06 12° NW 17:33:24 10° NNW daylight
31 Jan - 03:28:09 10° NNE 03:29:38 13° NE 03:31:07 10° E night (unlit)
31 Jan - 05:03:33 10° W 05:05:54 18° SW 05:08:15 10° S visible
31 Jan - 16:36:54 10° WSW 16:39:50 30° NW 16:42:46 10° N daylight
01 Feb - 04:10:29 10° NW 04:13:38 51° SW 04:16:48 10° SSE night (unlit)
01 Feb - 15:44:17 10° SW 15:47:35 87° SE 15:50:52 10° NE daylight
02 Feb - 03:18:15 10° NNW 03:21:22 47° NE 03:24:31 10° SE night (unlit)
02 Feb - 14:52:25 10° S 14:55:19 28° SE 14:58:12 10° ENE daylight
